Regional Weather Roundup
Issued by NWS Goodland, KS

Home | Current Version | Previous Version | Text Only | Print | Product List | Glossary On
Versions: 1 2 3 4 5 6 7 8 9 10 11 12 13 14 15 16 17 18 19 20 21 22 23 24 25 26 27 28 29 30 31 32 33 34 35 36 37 38 39 40 41 42 43 44 45 46 47 48 49 50
000
ASUS43 KGLD 282359
RWRGLD

GOODLAND FORECAST AREA HOURLY WEATHER ROUNDUP
NATIONAL WEATHER SERVICE GOODLAND KS
600 PM MDT THU AUG 28 2014

...OFFICIAL OBSERVATIONS...

CITY           SKY/WX    TMP DP  RH WIND       PRES   REMARKS
GOODLAND KS    MOSUNNY   74  55  51 NW20G26   29.98R
HILL CITY KS   SUNNY     82  63  52 S3        29.86F
IMPERIAL NEB   SUNNY     73  58  59 NW15      29.95R
MCCOOK NEB     MOSUNNY   76  62  62 NW15      29.87S
AKRON CO       PTSUNNY   66  54  65 NW14      30.08S
BURLINGTON CO  MOSUNNY   75  51  43 NW21G26   30.02R
LIMON CO       CLOUDY    64  47  53 NW22      30.14R
$$

...UNOFFICIAL OBSERVATIONS...

CITY           SKY/WX    TMP DP  RH WIND       PRES   REMARKS
COLBY KS       SUNNY     81  61  50 CALM      29.92F
GOVE KS          N/A     81  32  17 CALM        N/A
NORTON KS      SUNNY     81  57  44 S3        29.85S
SHARON SPRINGS   N/A     79  52  38 NW9         N/A
WAKEENEY KS      N/A     83  57  39 MISG        N/A
KIT CARSON CO    N/A     72  54  53 N6G16       N/A
YUMA CO          N/A     70  57  62 N16         N/A
$$



USA.gov is the U.S. government's official web portal to all federal, state and local government web resources and services.